Weather History for KFFX - October, 2013

Change the Weather History Date:

Friday, October 18, 2013

  Actual Average (KMKG) Record (KMKG)
Temperature  
Mean Temperature 47 °F 50 °F  
Max Temperature 59 °F 58 °F 78 °F (1910)
Min Temperature 35 °F 42 °F 23 °F (1952)
Degree Days  
Heating Degree Days 18 15  
Month to date heating degree days 225  
Since 1 July heating degree days 398  
Cooling Degree Days 0 0  
Month to date cooling degree days 2  
Year to date cooling degree days 563  
Moisture  
Dew Point 41 °F    
Average Humidity 88    
Maximum Humidity 100    
Minimum Humidity 55    
Precipitation  
Precipitation 0.00 in 0.10 in 2.14 in (1923)
Month to date precipitation 1.80  
Year to date precipitation 26.27  
Snow  
Snow 0.00 in 0.00 in 4.60 in (1972)
Month to date snowfall 0.0  
Since 1 July snowfall 0.0  
Since 1 September snowfall 0.0  
Snow Depth -    
Sea Level Pressure  
Sea Level Pressure 29.83 in    
Wind  
Wind Speed 3 mph (WSW)    
Max Wind Speed 16 mph    
Max Gust Speed 21 mph    
Visibility 8 miles    
Events Fog , Rain    
T = Trace of Precipitation, MM = Missing Value Source: NWS Daily Summary

Daily Weather History Graph

Daily Weather History Graph

Search for Another Location

Airport or City:

Trip Planner

Search our weather history database for the weather conditions in past years. The results will help you decide how hot, cold, wet, or windy it might be!

Date:

Astronomy

Oct. 18, 2013 Rise Set
Actual Time 8:01 AM EDT 6:55 PM EDT
Civil Twilight 7:32 AM EDT 7:24 PM EDT
Nautical Twilight 6:59 AM EDT 7:57 PM EDT
Astronomical Twilight 6:26 AM EDT 8:30 PM EDT
Moon 6:44 PM EDT (10/18) 7:36 AM EDT (10/18)
Length of Visible Light 11h 51m
Length of Day
10h 53m
Full, 100% of the Moon is Illuminated
Oct 18
Full
Oct 18
Full
Oct 26
Last Quarter
Nov 3
New
Nov 10
First Quarter

Hourly Weather History & Observations

Time (EDT) Temp. Windchill Dew Point Humidity Pressure Visibility Wind Dir Wind Speed Gust Speed Precip Events Conditions
12:40 AM 37.4 °F - 37.4 °F 100% 29.81 in 1.5 mi Calm Calm - N/A   Overcast
1:00 AM 37.4 °F - 37.4 °F 100% 29.81 in 4.0 mi Calm Calm - N/A   Mostly Cloudy
1:20 AM 39.2 °F - 39.2 °F 100% 29.81 in 7.0 mi Calm Calm - N/A   Overcast
1:40 AM 39.2 °F - 39.2 °F 100% 29.81 in 7.0 mi Calm Calm - N/A   Mostly Cloudy
2:00 AM 37.4 °F - 37.4 °F 100% 29.81 in 1.8 mi Calm Calm - N/A   Scattered Clouds
2:20 AM 37.4 °F - 37.4 °F 100% 29.81 in 1.2 mi Calm Calm - N/A   Mostly Cloudy
2:40 AM 37.4 °F - 37.4 °F 100% 29.82 in 3.0 mi Calm Calm - N/A   Clear
3:00 AM 37.4 °F - 37.4 °F 100% 29.81 in 0.5 mi Calm Calm - N/A Fog Fog
3:20 AM 35.6 °F - 35.6 °F 100% 29.81 in 0.5 mi Calm Calm - N/A Fog Fog
3:40 AM 37.4 °F - 37.4 °F 100% 29.81 in 2.0 mi Calm Calm - N/A   Clear
4:00 AM 37.4 °F - 37.4 °F 100% 29.81 in 2.0 mi Calm Calm - N/A   Clear
4:21 AM 35.6 °F - 35.6 °F 100% 29.81 in 1.0 mi Calm Calm - N/A   Mostly Cloudy
4:40 AM 37.4 °F - 37.4 °F 100% 29.80 in 3.0 mi Calm Calm - N/A   Scattered Clouds
5:00 AM 35.6 °F - 35.6 °F 100% 29.80 in 5.0 mi Calm Calm - N/A   Clear
5:18 AM 35.6 °F - 35.6 °F 100% 29.80 in 2.5 mi Calm Calm - N/A   Clear
5:40 AM 35.6 °F - 35.6 °F 100% 29.81 in 7.0 mi Calm Calm - N/A   Clear
5:59 AM 35.6 °F - 35.6 °F 100% 29.81 in 5.0 mi Calm Calm - N/A   Clear
6:18 AM 37.4 °F - 37.4 °F 100% 29.81 in 7.0 mi Calm Calm - N/A   Clear
6:40 AM 35.6 °F - 35.6 °F 100% 29.81 in 7.0 mi Calm Calm - N/A   Clear
6:59 AM 35.6 °F - 35.6 °F 100% 29.81 in 7.0 mi Calm Calm - N/A   Scattered Clouds
7:39 AM 35.6 °F - 35.6 °F 100% 29.81 in 7.0 mi Calm Calm - N/A   Clear
8:00 AM 35.6 °F - 35.6 °F 100% 29.81 in 7.0 mi Calm Calm - N/A   Clear
8:19 AM 35.6 °F - 35.6 °F 100% 29.82 in 5.0 mi Calm Calm - N/A   Clear
8:39 AM 35.6 °F - 35.6 °F 100% 29.82 in 7.0 mi Calm Calm - N/A   Mostly Cloudy
9:00 AM 37.4 °F - 37.4 °F 100% 29.82 in 7.0 mi Calm Calm - N/A   Scattered Clouds
9:20 AM 41.0 °F - 41.0 °F 100% 29.83 in 7.0 mi Calm Calm - N/A   Clear
9:59 AM 44.6 °F - 42.8 °F 93% 29.83 in 10.0 mi Calm Calm - N/A   Overcast
10:18 AM 44.6 °F - 44.6 °F 100% 29.83 in 10.0 mi Calm Calm - N/A   Overcast
10:37 AM 46.4 °F 45.2 °F 44.6 °F 93% 29.83 in 10.0 mi SSE 3.5 mph - N/A   Scattered Clouds
10:57 AM 50.0 °F - 46.4 °F 87% 29.83 in 10.0 mi South 3.5 mph - N/A   Scattered Clouds
11:36 AM 53.6 °F - 50.0 °F 88% 29.82 in 10.0 mi South 8.1 mph - N/A   Clear
11:56 AM 55.4 °F - 50.0 °F 82% 29.82 in 10.0 mi South 11.5 mph - N/A   Clear
12:16 PM 57.2 °F - 50.0 °F 77% 29.82 in 10.0 mi SW 9.2 mph - N/A   Clear
12:36 PM 57.2 °F - 44.6 °F 63% 29.81 in 10.0 mi SW 16.1 mph 20.7 mph N/A   Mostly Cloudy
12:56 PM 57.2 °F - 42.8 °F 59% 29.82 in 10.0 mi WSW 11.5 mph 17.3 mph N/A   Overcast
1:16 PM 59.0 °F - 42.8 °F 55% 29.82 in 10.0 mi WSW 10.4 mph 18.4 mph N/A   Mostly Cloudy
1:56 PM 55.4 °F - 44.6 °F 67% 29.83 in 10.0 mi WSW 10.4 mph 16.1 mph N/A   Mostly Cloudy
2:16 PM 55.4 °F - 44.6 °F 67% 29.82 in 10.0 mi WSW 10.4 mph - N/A   Mostly Cloudy
2:40 PM 55.4 °F - 44.6 °F 67% 29.82 in 10.0 mi West 10.4 mph 17.3 mph N/A   Mostly Cloudy
2:56 PM 55.4 °F - 44.6 °F 67% 29.82 in 10.0 mi West 10.4 mph 16.1 mph N/A   Overcast
3:16 PM 53.6 °F - 42.8 °F 67% 29.82 in 10.0 mi West 11.5 mph 18.4 mph N/A   Overcast
3:36 PM 53.6 °F - 42.8 °F 67% 29.82 in 10.0 mi WSW 10.4 mph - N/A   Overcast
3:56 PM 51.8 °F - 42.8 °F 71% 29.83 in 10.0 mi WSW 11.5 mph - N/A   Overcast
4:16 PM 51.8 °F - 42.8 °F 71% 29.83 in 10.0 mi WSW 11.5 mph - N/A   Overcast
4:36 PM 51.8 °F - 42.8 °F 71% 29.83 in 10.0 mi WSW 9.2 mph - N/A   Overcast
5:36 PM 50.0 °F - 42.8 °F 76% 29.84 in 10.0 mi WSW 9.2 mph - N/A   Overcast
5:59 PM 50.0 °F - 42.8 °F 76% 29.84 in 10.0 mi SW 9.2 mph - N/A   Overcast
6:16 PM 50.0 °F - 41.0 °F 71% 29.84 in 10.0 mi SW 9.2 mph - N/A   Overcast
6:36 PM 50.0 °F - 41.0 °F 71% 29.85 in 10.0 mi WSW 6.9 mph - N/A   Overcast
6:56 PM 50.0 °F - 42.8 °F 76% 29.85 in 10.0 mi WSW 8.1 mph - N/A   Overcast
7:18 PM 48.2 °F - 42.8 °F 82% 29.85 in 10.0 mi SW 6.9 mph - N/A   Mostly Cloudy
8:18 PM 48.2 °F - 42.8 °F 82% 29.86 in 10.0 mi WSW 4.6 mph - N/A Rain Light Rain
9:05 PM 46.4 °F 43.5 °F 44.6 °F 93% 29.87 in 10.0 mi West 5.8 mph - N/A Rain Light Rain
9:18 PM 46.4 °F 41.9 °F 44.6 °F 93% 29.87 in 10.0 mi West 9.2 mph - N/A   Drizzle
9:44 PM 46.4 °F 42.4 °F 44.6 °F 93% 29.87 in 10.0 mi SW 8.1 mph - N/A   Light Drizzle
9:58 PM 46.4 °F 43.5 °F 44.6 °F 93% 29.87 in 10.0 mi WSW 5.8 mph - N/A   Overcast
10:19 PM 46.4 °F 43.5 °F 44.6 °F 93% 29.87 in 10.0 mi WSW 5.8 mph - N/A   Overcast
10:38 PM 46.4 °F 43.5 °F 42.8 °F 87% 29.87 in 10.0 mi WSW 5.8 mph - N/A   Overcast
10:58 PM 46.4 °F 45.2 °F 42.8 °F 87% 29.87 in 10.0 mi WSW 3.5 mph - N/A   Overcast
11:30 PM 46.4 °F 45.2 °F 42.8 °F 87% 29.87 in 10.0 mi WSW 3.5 mph - N/A   Overcast